This demonstration page uses our WeatherBlox Daily Observations layout. Learn more.

Left ArrowRight Arrow

Hourly Observations for May 28, 2017

Temp ( °F °C ) Dew Point ( °F °C ) Humidity (%) Winds ( mph kmh ) Pressure ( in mb ) Visibility ( mi km ) Precip ( " mm )
12:15 am 00:15 Clear 54 12 48 9 82 82 WNW 8 13 30.03 1017 10 16 0.00 0.00
12:35 am 00:35 Clear 54 12 48 9 82 82 WNW 10 17 30.03 1017 10 16 0.00 0.00
12:55 am 00:55 Clear 54 12 48 9 82 82 WNW 9 15 30.03 1017 10 16 0.00 0.00
1:15 am 01:15 Clear 54 12 48 9 82 82 WNW 8 13 30.03 1017 10 16 0.00 0.00
1:35 am 01:35 Clear 55 13 48 9 77 77 W 8 13 30.00 1016 10 16 0.00 0.00
1:55 am 01:55 Clear 55 13 48 9 77 77 W 8 13 30.00 1016 10 16 0.00 0.00
2:15 am 02:15 Clear 54 12 48 9 82 82 WNW 7 11 29.97 1015 10 16 0.00 0.00
2:35 am 02:35 Clear 55 13 48 9 77 77 W 8 13 29.97 1015 10 16 0.00 0.00
2:55 am 02:55 Clear 55 13 46 8 72 72 WNW 8 13 29.97 1015 10 16 0.00 0.00
3:15 am 03:15 Clear 55 13 46 8 72 72 WNW 8 13 29.97 1015 10 16 0.00 0.00
3:35 am 03:35 Clear 54 12 46 8 77 77 WNW 8 13 29.97 1015 10 16 0.00 0.00
3:55 am 03:55 Clear 55 13 46 8 72 72 W 10 17 29.97 1015 10 16 0.00 0.00
4:15 am 04:15 Clear 55 13 46 8 72 72 WNW 9 15 29.97 1015 10 16 0.00 0.00
4:35 am 04:35 Clear 55 13 46 8 72 72 W 9 15 29.97 1015 10 16 0.00 0.00
4:55 am 04:55 Clear 55 13 45 7 67 67 W 9 15 29.97 1015 10 16 0.00 0.00
5:15 am 05:15 Clear 54 12 45 7 72 72 W 10 17 29.97 1015 10 16 0.00 0.00
5:35 am 05:35 Clear 54 12 45 7 72 72 WNW 9 15 29.97 1015 10 16 0.00 0.00
5:55 am 05:55 Clear 54 12 45 7 72 72 WNW 9 15 29.97 1015 10 16 0.00 0.00
6:15 am 06:15 Sunny 52 11 45 7 77 77 WNW 10 17 30.00 1016 10 16 0.00 0.00
6:35 am 06:35 Sunny 54 12 43 6 67 67 WNW 10 17 29.97 1015 10 16 0.00 0.00
6:55 am 06:55 Sunny 54 12 43 6 67 67 WNW 10 17 29.97 1015 10 16 0.00 0.00
7:15 am 07:15 Sunny 54 12 45 7 72 72 WNW 10 17 29.97 1015 10 16 0.00 0.00
7:35 am 07:35 Sunny 55 13 45 7 67 67 WNW 12 19 29.97 1015 10 16 0.00 0.00
7:55 am 07:55 Sunny 57 14 45 7 63 63 WNW 12 19 29.97 1015 10 16 0.00 0.00
8:15 am 08:15 Sunny 57 14 45 7 63 63 WNW 12 19 30.00 1016 10 16 0.00 0.00
8:35 am 08:35 Sunny 61 16 45 7 55 55 WNW 13 20 29.97 1015 10 16 0.00 0.00
8:55 am 08:55 Sunny 63 17 45 7 52 52 NW 12 19 29.97 1015 10 16 0.00 0.00
9:15 am 09:15 Sunny 64 18 45 7 49 49 NW 13 20 29.97 1015 10 16 0.00 0.00
9:35 am 09:35 Sunny 66 19 46 8 49 49 WNW 10 17 29.97 1015 10 16 0.00 0.00
9:55 am 09:55 Sunny 68 20 43 6 40 40 NW 14 22 29.94 1014 10 16 0.00 0.00
10:15 am 10:15 Sunny 70 21 45 7 40 40 NW 13 20 29.94 1014 10 16 0.00 0.00
10:35 am 10:35 Sunny 72 22 45 7 38 38 WNW 14 22 29.94 1014 10 16 0.00 0.00
10:55 am 10:55 Sunny 72 22 45 7 38 38 NW 10 17 29.94 1014 10 16 0.00 0.00
11:15 am 11:15 Sunny 73 23 45 7 36 36 NW 12 19 29.94 1014 10 16 0.00 0.00
11:35 am 11:35 Sunny 75 24 41 5 29 29 NW 14 22 29.91 1013 10 16 0.00 0.00
11:55 am 11:55 Sunny 75 24 39 4 27 27 WNW 16 26 29.91 1013 10 16 0.00 0.00
12:15 pm 12:15 Partly Cloudy 75 24 37 3 25 25 NW 18 30 29.91 1013 10 16 0.00 0.00
12:35 pm 12:35 Mostly Sunny 77 25 39 4 26 26 WNW 16 26 29.91 1013 10 16 0.00 0.00
12:55 pm 12:55 Mostly Sunny 79 26 39 4 24 24 NNW 18 30 29.91 1013 10 16 0.00 0.00
1:15 pm 13:15 Mostly Cloudy 77 25 39 4 26 26 NW 14 22 29.91 1013 10 16 0.00 0.00
1:35 pm 13:35 Mostly Cloudy 79 26 39 4 24 24 NW 18 30 29.91 1013 10 16 0.00 0.00
1:55 pm 13:55 Mostly Cloudy 79 26 39 4 24 24 NNW 14 22 29.91 1013 10 16 0.00 0.00
2:15 pm 14:15 Mostly Cloudy 79 26 39 4 24 24 WNW 17 28 29.91 1013 10 16 0.00 0.00
2:35 pm 14:35 Partly Cloudy 79 26 39 4 24 24 WNW 15 24 29.88 1012 10 16 0.00 0.00
2:55 pm 14:55 Mostly Sunny 79 26 37 3 23 23 NW 16 26 29.88 1012 10 16 0.00 0.00
3:15 pm 15:15 Mostly Cloudy 77 25 39 4 26 26 WNW 17 28 29.88 1012 10 16 0.00 0.00
3:35 pm 15:35 Mostly Cloudy 77 25 41 5 28 28 W 17 28 29.88 1012 10 16 0.00 0.00
3:55 pm 15:55 Mostly Cloudy 73 23 46 8 38 38 W 16 26 29.94 1014 10 16 0.00 0.00
4:15 pm 16:15 Mostly Cloudy 73 23 43 6 33 33 W 10 17 29.94 1014 10 16 0.00 0.00
4:35 pm 16:35 Mostly Cloudy 70 21 52 11 53 53 N 8 13 29.94 1014 10 16 0.00 0.00
4:55 pm 16:55 Mostly Sunny 73 23 45 7 36 36 W 6 9 29.94 1014 10 16 0.00 0.00
5:15 pm 17:15 Sunny 73 23 45 7 36 36 SW 3 6 29.94 1014 10 16 0.00 0.00
5:35 pm 17:35 Sunny 73 23 45 7 36 36 WSW 6 9 29.94 1014 10 16 0.00 0.00
5:55 pm 17:55 Sunny 75 24 45 7 34 34 WSW 6 9 29.88 1012 10 16 0.00 0.00
6:15 pm 18:15 Sunny 75 24 45 7 34 34 NW 12 19 29.88 1012 10 16 0.00 0.00
6:35 pm 18:35 Sunny 77 25 41 5 28 28 NW 13 20 29.88 1012 10 16 0.00 0.00
6:55 pm 18:55 Sunny 77 25 41 5 28 28 NNW 12 19 29.88 1012 10 16 0.00 0.00
7:15 pm 19:15 Sunny 75 24 43 6 31 31 NNW 10 17 29.88 1012 10 16 0.00 0.00
7:35 pm 19:35 Sunny 75 24 41 5 29 29 WNW 10 17 29.88 1012 10 16 0.00 0.00
7:55 pm 19:55 Sunny 75 24 41 5 29 29 WNW 12 19 29.88 1012 10 16 0.00 0.00
8:15 pm 20:15 Sunny 73 23 41 5 31 31 NW 7 11 29.91 1013 10 16 0.00 0.00
8:35 pm 20:35 Sunny 72 22 43 6 36 36 WNW 5 7 29.91 1013 10 16 0.00 0.00
8:55 pm 20:55 Sunny 72 22 43 6 36 36 W 5 7 29.91 1013 10 16 0.00 0.00
9:15 pm 21:15 Mostly Cloudy 72 22 43 6 36 36 W 7 11 29.91 1013 10 16 0.00 0.00
9:35 pm 21:35 Cloudy 70 21 45 7 40 40 W 25 41 29.91 1013 5 8 0.00 0.00
9:55 pm 21:55 Mostly Cloudy 68 20 45 7 43 43 W 9 15 29.91 1013 10 16 0.00 0.00
10:15 pm 22:15 Mostly Clear 66 19 45 7 46 46 W 10 17 29.94 1014 10 16 0.00 0.00
10:35 pm 22:35 Mostly Clear 66 19 45 7 46 46 W 9 15 29.97 1015 10 16 0.00 0.00
10:55 pm 22:55 Mostly Cloudy 66 19 43 6 43 43 NW 15 24 29.94 1014 10 16 0.00 0.00
11:15 pm 23:15 Mostly Clear 64 18 43 6 46 46 NW 13 20 29.97 1015 10 16 0.00 0.00
11:35 pm 23:35 Clear 63 17 43 6 49 49 NNW 12 19 29.97 1015 10 16 0.00 0.00
11:55 pm 23:55 Clear 61 16 43 6 52 52 NW 9 15 29.97 1015 10 16 0.00 0.00

Powered by AerisWeather